Location: Augusta
(33.4710°N, 81.9750°W)
Time: 02:56:00
(UTC-04:00)

X-37B - Visible Passes

Search period start: 28 September 2020 00:00
Search period end: 08 October 2020 00:00
Orbit: 386 x 387 km, 45.0° (Epoch: 18 September)

Date Brightness Start Highest point End Pass type
(mag) Time Alt. Az. Time Alt. Az. Time Alt. Az.
28 Sep 3.1 20:24:20 10° SSE 20:24:27 10° SSE 20:24:27 10° SSE visible
29 Sep 2.8 21:00:33 10° SW 21:01:41 20° SW 21:01:41 20° SW visible
30 Sep 1.7 20:02:26 10° SSW 20:05:12 28° SE 20:06:26 21° E visible
01 Oct 0.9 20:40:00 10° WSW 20:43:07 59° NNW 20:43:20 57° N visible
02 Oct 0.6 19:41:25 10° SW 19:44:33 63° SE 19:47:41 10° ENE visible
02 Oct 3.6 21:18:56 10° WNW 21:20:04 16° NW 21:20:04 16° NW visible
03 Oct 2.1 20:19:46 10° W 20:22:38 31° NNW 20:24:23 18° NNE visible
04 Oct 3.3 20:59:13 10° NW 21:00:52 14° NNW 21:00:52 14° NNW visible
05 Oct 2.8 19:59:49 10° WNW 20:02:15 20° NNW 20:04:42 10° NNE visible
06 Oct 3.4 20:39:38 10° NNW 20:40:50 12° N 20:41:19 11° N visible
07 Oct 3.2 19:40:05 10° NW 19:41:57 14° NNW 19:43:48 10° NNE visible
